STARLINK-1167, 45071

Orbit data source: Space-Track

STARLINK-1167, 45071 is a payload satellite owned by SpaceX/Seattle (US) in LEO that was launched on Wed, 29 Jan 2020 UTC via an FALCON 9 launch vehicle from the Air Force Eastern Test Range (AFETR). Payload-class satellites include a variety of spacecraft equipped with specific instruments for various scientific and technological missions. These include communications satellites like Starlink; space stations such as the ISS; scientific satellites like the Hubble; Earth observation satellites from companies like Planet Labs, Umbra, and HawkEye 360; GPS; miniature CubeSats for education and research; and military/defense satellites.

Loading next visibility...
Identifier
45071, 2020-006AD
Orbit
LEO
Last TLE update
19 hours ago
Origin
Manufacturer
SpaceX/Seattle
Mission
Operational Commercial Communications
Bus & Motor
STARLINK, Unknown motor
Mass
260 kg wet, ~248 kg dry
Launch date (UTC)
2020-01-29 (5 years ago)
Launch vehicle
FALCON 9
Launch site
Air Force Eastern Test Range (AFETR)
Object type
Payload
Rocket body
Debris
Shape & HBR
Box + 1 Pan, 8.86 m
Radar Cross Section
13.562 m², Large (>1 m²)

Expand to show TLE details & history

TLE from 19 hours ago
0 STARLINK-1167
1 45071U 20006AD  25128.46127780  .00005376  00000-0  37943-3 0  9998
2 45071  53.0539 196.8451 0001463  83.7512 276.3643 15.06408905290738
Epoch: 2025-05-08T11:04Z
Definitive object data (Epoch: 2025-05-08T11:04:14.401Z)
Latitude
-0.00009°
Longitude
164.25359°
Altitude
547.951 km
Speed
7.589 km/s
True Right ascension
13h 07m 22s
True Declination
0° 00' 00"
Sunlit
Object was in full shadow at TLE epoch
Visualization TLE readout
Latitude
24.85817°
Longitude
-179.07259°
Altitude
547.519 km
Speed
7.592 km/s
Apparent Right ascension
13h 26m 23s
Apparent Declination
-39° 27' 38"
Sunlit
Object is in full shadow
Visualization observer readout
Local Sidereal Time
14:27:53
Azimuth
191.973° SSW
Elevation
9.391°
Doppler factor
1
Orbital elements
Apogee altitude
548.468 km
Perigee altitude
546.442 km
Semi-major axis
6,925.592 km
Eccentricity
0.0001463
Inclination
53.0539°
RAAN
196.8451°
Arg. of periapsis
83.7512°
True anomaly
276.34764°
Mean anomaly
276.3643°
Eccentric anomaly
276.35597°
Mean motion
3.7658 °/min
BSTAR
0.00037943
Orbital period
95.6 mins
Loading maneuver chart data...
Loading SW <> Apogee altitude chart data...
Loading historical data...
Loading historical data...
Loading historical data...
Loading historical data...
Loading historical data...
Loading historical data...
Loading historical data...

STARLINK-1167 Visibility forecast

Observer location: undefined°, undefined°

Span
Click to sort rows by Start time (UTC) header in descending order
Start Az.
Max El. time (UTC)
Max El. Az.
Max El.
End time (UTC)
End Az.
6 mins2025-05-09 06:20:04.268Z183.705° SSW2025-05-09 06:23:04.268Z122.588° SE25.381°2025-05-09 06:26:04.268Z72.486° E
5 mins2025-05-09 08:00:04.268Z269.27° W2025-05-09 08:02:04.268Z323.021° NNW33.643°2025-05-09 08:05:04.268Z33.32° NE
5 mins2025-05-09 13:02:04.268Z341.354° N2025-05-09 13:04:04.268Z32.614° NE29.207°2025-05-09 13:07:04.268Z91.698° ESE
6 mins2025-05-09 14:41:04.268Z285.728° WNW2025-05-09 14:43:04.268Z244.231° WSW30.848°2025-05-09 14:47:04.268Z160.224° S
5 mins2025-05-10 06:14:04.268Z190.553° SSW2025-05-10 06:16:04.268Z144.601° SSE31.791°2025-05-10 06:19:04.268Z71.465° E
|